Home   Weather   Oss   Past weeks

Flag for Netherlands Past Weather in Oss, Netherlands — Yesterday and Last 2 Weeks

Now
54 °F

Mostly cloudy.


Feels Like: 54 °F
Forecast: 47 / 62 °F
Wind: 1 mph from East

Location: Volkel

Current Time: Oct 1, 2016 at 6:56:17 AM

Latest Report: Oct 1, 2016 at 6:25 AM


Visibility: N/A

Pressure: 29.80 "Hg

Humidity: 94%

Dew Point: 52 °F

Location of OssLocation

Past Weather in Oss — Graph

°F

Oss Temperature Yesterday

Maximum temperature yesterday: 64 °F (at 2:55 PM)
Minimum temperature yesterday: 52 °F (at 9:55 PM)
Average temperature yesterday: 58 °F

High & Low Weather Summary for the Past Weeks

 TemperatureHumidityPressure
High79 °F (Sep 25, 3:25 PM)100% (Sep 16, 5:55 AM)30.30 "Hg (Sep 16, 5:55 AM)
Low41 °F (Sep 27, 7:25 AM)41% (Sep 24, 2:55 PM)29.80 "Hg (Oct 1, 5:25 AM)
Average60 °F78%30.09 "Hg
* Reported Sep 16 5:25 AM — Oct 1 5:55 AM, Oss, Weather by CustomWeather, © 2016

Note: Actual official high and low records may vary slightly from our data, if they occured in-between our weather recording intervals... More about our weather records

Advertising

Oss Weather History for the Previous 24 Hours

Scroll right to see more
 ConditionsComfort  
Time TempWeatherWind HumidityBarometerVisibility
5:55 AM
Sat, Oct 1
54 °FOvercast.2 mph94%29.80 "HgN/A
5:25 AM54 °FDrizzle. Mostly cloudy.1 mph94%29.80 "HgN/A
4:55 AM55 °FPassing clouds.2 mph88%29.83 "HgN/A
4:25 AM55 °FOvercast.6 mph88%29.83 "HgN/A
3:55 AM55 °FMostly cloudy.5 mph82%29.83 "HgN/A
3:25 AM55 °FMostly cloudy.5 mph82%29.86 "HgN/A
2:55 AM55 °FLight rain. Mostly cloudy.5 mph82%29.86 "HgN/A
2:25 AM55 °FOvercast.5 mph82%29.86 "HgN/A
1:55 AM55 °FMostly cloudy.3 mph82%29.86 "HgN/A
1:25 AM55 °FMostly cloudy.6 mph77%29.89 "HgN/A
12:55 AM55 °FMostly cloudy.6 mph77%29.89 "HgN/A
12:25 AM55 °FPassing clouds.5 mph77%29.89 "HgN/A
11:55 PM
Fri, Sep 30
54 °FPassing clouds.2 mph82%29.92 "HgN/A
11:25 PM55 °FPassing clouds.5 mph77%29.92 "HgN/A
10:55 PM54 °FPassing clouds.5 mph82%29.92 "HgN/A
10:25 PM54 °FPartly cloudy.2 mph77%29.92 "HgN/A
9:55 PM52 °FPassing clouds.2 mph82%29.92 "HgN/A
9:25 PM55 °FPassing clouds.1 mph77%29.92 "HgN/A
8:55 PM57 °FPassing clouds.2 mph72%29.92 "HgN/A
8:25 PM57 °FOvercast.2 mph72%29.95 "HgN/A
7:55 PM55 °FOvercast.3 mph72%29.92 "HgN/A
7:25 PM55 °FPassing clouds.6 mph72%29.92 "HgN/A
6:55 PM59 °FCool.6 mph63%29.92 "HgN/A
6:25 PM63 °FPassing clouds.9 mph56%29.92 "HgN/A
5:55 PM64 °FMild.10 mph49%29.92 "HgN/A
5:25 PM64 °FMild.10 mph49%29.92 "HgN/A
4:55 PM64 °FPassing clouds.12 mph49%29.92 "HgN/A
4:25 PM64 °FPassing clouds.13 mph52%29.95 "HgN/A
3:55 PM64 °FMild.14 mph49%29.95 "HgN/A
3:25 PM64 °FPassing clouds.14 mph49%29.95 "HgN/A
2:55 PM64 °FMild.14 mph52%29.95 "HgN/A
2:25 PM63 °FOvercast.14 mph52%29.95 "HgN/A
1:55 PM63 °FPartly sunny.13 mph59%29.95 "HgN/A
1:25 PM63 °FPartly sunny.15 mph59%29.95 "HgN/A
12:55 PM63 °FPartly sunny.13 mph68%29.95 "HgN/A
12:25 PM61 °FOvercast.14 mph68%29.95 "HgN/A
11:55 AM59 °FOvercast.15 mph72%29.95 "HgN/A
11:25 AM59 °FBroken clouds.15 mph77%29.95 "HgN/A
10:55 AM59 °FOvercast.12 mph77%29.92 "HgN/A
10:25 AM57 °FOvercast.9 mph88%29.92 "HgN/A
10:03 AM57 °FLow clouds.10 mph94%29.92 "HgN/A
9:55 AM57 °FLow clouds.9 mph94%29.92 "HgN/A
9:25 AM57 °FOvercast.9 mph94%29.92 "HgN/A
8:55 AM55 °FFog.9 mph100%29.92 "Hg6 mi
8:25 AM55 °FFog.8 mph94%29.92 "Hg5 mi
7:55 AM55 °FFog.9 mph94%29.92 "Hg5 mi
7:25 AM55 °FPassing clouds.8 mph94%29.89 "HgN/A
6:55 AM55 °FMostly cloudy.7 mph94%29.89 "HgN/A
6:25 AM55 °FMostly cloudy.8 mph94%29.89 "HgN/A
Weather by CustomWeather, © 2016

See weather overviewHow to use our weather pages